| time (UTC) | temp F | wind direction | speed knots | gust knots | rain 1hr in | rain 24hr in | rain mn in | humidity % | barometer mb |
| 20260506033625 | 40 | 260 | 7.0 | 10.4 | 0.00 | 0.00 | 0.00 | 99 | 1006.4 |
| 20260506032726 | 39 | 267 | 5.2 | 7.0 | 0.00 | 0.00 | 0.00 | 99 | 1006.2 |
| 20260506031825 | 39 | 265 | 5.2 | 7.0 | 0.00 | 0.00 | 0.00 | 99 | 1006.2 |
| 20260506030926 | 38 | 243 | 3.5 | 7.0 | 0.00 | 0.00 | 0.00 | 99 | 1006.3 |
| 20260506030025 | 36 | 250 | 2.6 | 3.5 | 0.00 | 0.00 | 0.00 | 97 | 1005.9 |
| 20260506025125 | 35 | 232 | 1.7 | 3.5 | 0.00 | 0.00 | 0.00 | 97 | 1005.9 |
| 20260506024227 | 34 | 223 | 1.7 | 2.6 | 0.00 | 0.00 | 0.00 | 97 | 1005.8 |
| 20260506023325 | 34 | 251 | 1.7 | 3.5 | 0.00 | 0.00 | 0.00 | 97 | 1005.7 |
| 20260506022638 | 34 | 260 | 1.7 | 2.6 | 0.00 | 0.00 | 0.00 | 97 | 1005.5 |
| 20260506021525 | 34 | 208 | 2.6 | 3.5 | 0.00 | 0.00 | 0.00 | 97 | 1005.6 |
| 20260506020626 | 34 | 221 | 1.7 | 1.7 | 0.00 | 0.00 | 0.00 | 97 | 1005.5 |
| 20260506015725 | 34 | 212 | 1.7 | 1.7 | 0.00 | 0.00 | 0.00 | 97 | 1005.4 |
| 20260506014825 | 35 | 248 | 1.7 | 1.7 | 0.00 | 0.00 | 0.00 | 96 | 1005.1 |
| 20260506013925 | 35 | 275 | 1.7 | 2.6 | 0.00 | 0.00 | 0.00 | 96 | 1005.0 |
| 20260506013237 | 36 | 269 | 2.6 | 3.5 | 0.00 | 0.00 | 0.00 | 95 | 1005.1 |
| 20260506012335 | 36 | 269 | 2.6 | 3.5 | 0.00 | 0.00 | 0.00 | 95 | 1005.3 |
| 20260506011226 | 37 | 261 | 2.6 | 3.5 | 0.00 | 0.00 | 0.00 | 96 | 1005.0 |
| 20260506010325 | 37 | 274 | 3.5 | 3.5 | 0.00 | 0.00 | 0.00 | 99 | 1005.0 |
| 20260506005426 | 37 | 275 | 3.5 | 4.3 | 0.00 | 0.00 | 0.00 | 99 | 1004.9 |
| 20260506004739 | 37 | 257 | 3.5 | 4.3 | 0.00 | 0.00 | 0.00 | 99 | 1005.0 |
| 20260506003626 | 38 | 256 | 3.5 | 4.3 | 0.00 | 0.00 | 0.00 | 99 | 1004.7 |
| 20260506002727 | 38 | 271 | 3.5 | 4.3 | 0.00 | 0.00 | 0.00 | 98 | 1004.7 |
| 20260506001826 | 38 | 234 | 3.5 | 5.2 | 0.00 | 0.00 | 0.00 | 98 | 1004.7 |
| 20260506000925 | 38 | 262 | 2.6 | 4.3 | 0.00 | 0.00 | 0.00 | 98 | 1004.6 |
| 20260506000026 | 38 | 258 | 2.6 | 4.3 | 0.00 | 0.00 | 0.00 | 98 | 1004.4 |
| 20260505235125 | 39 | 270 | 3.5 | 4.3 | 0.00 | 0.00 | 0.00 | 97 | 1004.4 |
| 20260505234441 | 39 | 264 | 3.5 | 6.1 | 0.00 | 0.00 | 0.00 | 97 | 1004.2 |
| 20260505233325 | 39 | 254 | 4.3 | 7.0 | 0.00 | 0.00 | 0.00 | 97 | 1004.2 |
| 20260505232635 | 39 | 263 | 4.3 | 7.0 | 0.00 | 0.00 | 0.00 | 97 | 1004.1 |
| 20260505231526 | 39 | 282 | 4.3 | 6.1 | 0.00 | 0.05 | 0.00 | 95 | 1004.1 |
| 20260505230625 | 39 | 267 | 5.2 | 7.8 | 0.00 | 0.05 | 0.00 | 95 | 1004.2 |
| 20260505225726 | 40 | 276 | 6.1 | 7.8 | 0.00 | 0.05 | 0.00 | 95 | 1004.2 |
| 20260505225035 | 40 | 263 | 6.1 | 7.8 | 0.00 | 0.05 | 0.00 | 94 | 1004.0 |
| 20260505223925 | 40 | 275 | 5.2 | 9.6 | 0.00 | 0.05 | 0.00 | 94 | 1004.2 |
| 20260505223025 | 40 | 274 | 6.1 | 7.0 | 0.00 | 0.05 | 0.00 | 93 | 1004.0 |
| 20260505222126 | 40 | 266 | 6.1 | 8.7 | 0.00 | 0.05 | 0.00 | 93 | 1003.8 |
| 20260505221227 | 40 | 286 | 7.0 | 9.6 | 0.00 | 0.05 | 0.00 | 93 | 1003.8 |
| 20260505220326 | 40 | 280 | 7.0 | 9.6 | 0.00 | 0.05 | 0.00 | 92 | 1003.7 |
| 20260505215425 | 40 | 273 | 7.0 | 9.6 | 0.00 | 0.05 | 0.00 | 91 | 1003.8 |
| 20260505214525 | 40 | 292 | 7.0 | 9.6 | 0.00 | 0.05 | 0.00 | 90 | 1003.5 |
| 20260505213626 | 40 | 259 | 7.0 | 8.7 | 0.00 | 0.05 | 0.00 | 90 | 1003.7 |
| 20260505212941 | 40 | 271 | 7.0 | 8.7 | 0.00 | 0.05 | 0.00 | 90 | 1003.6 |
| 20260505211826 | 40 | 266 | 8.7 | 12.2 | 0.00 | 0.05 | 0.00 | 90 | 1003.6 |
| 20260505210925 | 40 | 277 | 7.8 | 9.6 | 0.00 | 0.05 | 0.00 | 91 | 1003.4 |
| 20260505210025 | 40 | 277 | 7.8 | 12.2 | 0.00 | 0.05 | 0.00 | 92 | 1003.6 |
| 20260505205125 | 40 | 275 | 8.7 | 10.4 | 0.00 | 0.05 | 0.05 | 93 | 1003.4 |
| 20260505204225 | 40 | 300 | 7.8 | 9.6 | 0.00 | 0.05 | 0.05 | 94 | 1003.3 |
| 20260505203325 | 40 | 285 | 7.0 | 9.6 | 0.00 | 0.05 | 0.05 | 94 | 1003.1 |
| 20260505202426 | 40 | 277 | 5.2 | 7.0 | 0.00 | 0.05 | 0.05 | 94 | 1003.2 |
| 20260505201525 | 40 | 260 | 8.7 | 10.4 | 0.00 | 0.05 | 0.05 | 94 | 1003.1 |
| 20260505200625 | 41 | 245 | 8.7 | 12.2 | 0.00 | 0.05 | 0.05 | 93 | 1002.8 |
| 20260505195725 | 41 | 271 | 9.6 | 12.2 | 0.00 | 0.05 | 0.05 | 92 | 1002.8 |
| 20260505195037 | 41 | 273 | 8.7 | 10.4 | 0.00 | 0.05 | 0.05 | 92 | 1003.0 |
| 20260505193926 | 41 | 281 | 10.4 | 12.2 | 0.00 | 0.05 | 0.05 | 89 | 1002.9 |
| 20260505193025 | 41 | 259 | 9.6 | 13.9 | 0.00 | 0.05 | 0.05 | 87 | 1003.0 |
| 20260505192338 | 41 | 280 | 10.4 | 14.8 | 0.00 | 0.05 | 0.05 | 85 | 1002.7 |
| 20260505191227 | 41 | 286 | 11.3 | 14.8 | 0.00 | 0.05 | 0.05 | 81 | 1002.6 |
| 20260505190325 | 42 | 280 | 9.6 | 13.0 | 0.00 | 0.05 | 0.05 | 79 | 1002.4 |
| 20260505185425 | 42 | 269 | 7.8 | 11.3 | 0.00 | 0.05 | 0.05 | 78 | 1002.5 |
| 20260505184526 | 42 | 278 | 8.7 | 11.3 | 0.00 | 0.05 | 0.05 | 76 | 1002.4 |
| 20260505183625 | 42 | 304 | 11.3 | 13.9 | 0.00 | 0.05 | 0.05 | 75 | 1002.4 |
| 20260505182937 | 42 | 298 | 10.4 | 13.9 | 0.00 | 0.05 | 0.05 | 76 | 1002.1 |
| 20260505181825 | 42 | 267 | 9.6 | 10.4 | 0.00 | 0.05 | 0.05 | 77 | 1002.1 |
| 20260505180925 | 42 | 286 | 8.7 | 10.4 | 0.00 | 0.05 | 0.05 | 77 | 1001.9 |
| 20260505180025 | 43 | 285 | 9.6 | 12.2 | 0.00 | 0.05 | 0.05 | 75 | 1001.9 |
| 20260505175337 | 43 | 287 | 10.4 | 14.8 | 0.00 | 0.05 | 0.05 | 74 | 1001.9 |
| 20260505174226 | 44 | 298 | 13.0 | 15.6 | 0.00 | 0.05 | 0.05 | 73 | 1001.9 |
| 20260505173325 | 44 | 281 | 11.3 | 15.6 | 0.00 | 0.05 | 0.05 | 71 | 1001.8 |
| 20260505172425 | 45 | 284 | 12.2 | 14.8 | 0.00 | 0.05 | 0.05 | 69 | 1002.0 |
| 20260505171525 | 45 | 271 | 11.3 | 14.8 | 0.00 | 0.05 | 0.05 | 70 | 1001.9 |
| 20260505170625 | 45 | 255 | 10.4 | 13.0 | 0.00 | 0.05 | 0.05 | 70 | 1001.8 |
| 20260505165725 | 45 | 262 | 13.0 | 14.8 | 0.00 | 0.05 | 0.05 | 68 | 1001.8 |
| 20260505165038 | 46 | 279 | 13.0 | 15.6 | 0.00 | 0.05 | 0.05 | 68 | 1001.7 |
| 20260505163926 | 45 | 275 | 13.0 | 19.1 | 0.00 | 0.05 | 0.05 | 67 | 1001.8 |
| 20260505163238 | 46 | 277 | 13.9 | 19.1 | 0.00 | 0.05 | 0.05 | 66 | 1001.8 |
| 20260505162125 | 46 | 303 | 13.9 | 20.0 | 0.00 | 0.05 | 0.05 | 65 | 1002.0 |
| 20260505161227 | 46 | 287 | 14.8 | 21.7 | 0.00 | 0.05 | 0.05 | 64 | 1002.0 |
| 20260505160326 | 47 | 279 | 14.8 | 20.0 | 0.00 | 0.05 | 0.05 | 64 | 1001.9 |
| 20260505152727 | 46 | 257 | 13.0 | 16.5 | 0.00 | 0.05 | 0.05 | 63 | 1001.5 |
| 20260505151825 | 47 | 290 | 12.2 | 17.4 | 0.00 | 0.05 | 0.05 | 63 | 1001.4 |
| 20260505150925 | 48 | 291 | 13.0 | 16.5 | 0.00 | 0.05 | 0.05 | 64 | 1001.6 |
| 20260505124525 | 49 | 288 | 15.6 | 20.9 | 0.00 | 0.05 | 0.05 | 66 | 1001.0 |
| 20260505123625 | 49 | 311 | 15.6 | 20.0 | 0.00 | 0.05 | 0.05 | 66 | 1000.8 |
| 20260505122941 | 50 | 303 | 15.6 | 18.2 | 0.00 | 0.05 | 0.05 | 63 | 1000.7 |
| 20260505121825 | 51 | 303 | 13.9 | 19.1 | 0.00 | 0.05 | 0.05 | 61 | 1000.8 |
| 20260505120925 | 51 | 327 | 12.2 | 18.2 | 0.00 | 0.05 | 0.05 | 62 | 1000.6 |
| 20260505120025 | 51 | 312 | 13.0 | 19.1 | 0.00 | 0.05 | 0.05 | 63 | 1000.6 |
| 20260505115125 | 51 | 324 | 13.0 | 17.4 | 0.00 | 0.05 | 0.05 | 64 | 1000.5 |
| 20260505114438 | 51 | 315 | 13.0 | 20.0 | 0.00 | 0.05 | 0.05 | 65 | 1000.4 |
| 20260505113326 | 50 | 308 | 14.8 | 18.2 | 0.00 | 0.06 | 0.05 | 66 | 1000.4 |
| 20260505112425 | 50 | 302 | 16.5 | 21.7 | 0.00 | 0.07 | 0.05 | 66 | 1000.4 |
| 20260505111526 | 50 | 313 | 16.5 | 20.9 | 0.00 | 0.08 | 0.05 | 65 | 1000.1 |
| 20260505110625 | 51 | 271 | 15.6 | 21.7 | 0.00 | 0.08 | 0.05 | 63 | 1000.3 |
| 20260505102125 | 52 | 267 | 14.8 | 20.9 | 0.00 | 0.14 | 0.05 | 63 | 999.7 |
| 20260505101436 | 51 | 283 | 14.8 | 17.4 | 0.00 | 0.15 | 0.05 | 64 | 999.7 |
| 20260505100539 | 51 | 313 | 13.9 | 20.9 | 0.00 | 0.15 | 0.05 | 62 | 999.5 |
| 20260505095636 | 52 | 300 | 17.4 | 20.9 | 0.00 | 0.15 | 0.05 | 61 | 999.2 |
| 20260505094525 | 53 | 288 | 14.8 | 19.1 | 0.00 | 0.17 | 0.05 | 58 | 999.2 |
| 20260505093625 | 53 | 305 | 15.6 | 23.5 | 0.00 | 0.17 | 0.05 | 58 | 999.0 |
| 20260505092727 | 53 | 279 | 15.6 | 24.3 | 0.00 | 0.17 | 0.05 | 58 | 998.8 |
| 20260505091825 | 53 | 291 | 17.4 | 24.3 | 0.00 | 0.17 | 0.05 | 59 | 998.8 |
| 20260505090926 | 53 | 294 | 18.2 | 23.5 | 0.00 | 0.18 | 0.05 | 60 | 998.8 |
| 20260505090025 | 53 | 289 | 15.6 | 20.9 | 0.00 | 0.18 | 0.05 | 59 | 998.5 |
| 20260505085125 | 54 | 282 | 17.4 | 20.9 | 0.00 | 0.18 | 0.05 | 58 | 998.4 |
| 20260505084226 | 53 | 301 | 19.1 | 23.5 | 0.00 | 0.18 | 0.05 | 59 | 998.3 |
| 20260505083325 | 53 | 287 | 16.5 | 23.5 | 0.00 | 0.18 | 0.05 | 59 | 998.4 |
| 20260505082425 | 53 | 283 | 14.8 | 20.9 | 0.00 | 0.18 | 0.05 | 60 | 998.1 |
| 20260505081525 | 52 | 291 | 16.5 | 22.6 | 0.00 | 0.18 | 0.05 | 60 | 998.3 |
| 20260505080625 | 53 | 307 | 15.6 | 20.0 | 0.00 | 0.18 | 0.05 | 61 | 998.3 |
| 20260505075727 | 53 | 279 | 15.6 | 20.0 | 0.00 | 0.18 | 0.05 | 61 | 998.0 |
| 20260505074825 | 53 | 302 | 17.4 | 23.5 | 0.00 | 0.18 | 0.05 | 60 | 998.2 |
| 20260505073926 | 53 | 280 | 18.2 | 22.6 | 0.00 | 0.18 | 0.05 | 59 | 997.9 |
| 20260505073027 | 53 | 279 | 15.6 | 20.0 | 0.00 | 0.18 | 0.05 | 57 | 998.0 |
| 20260505072126 | 54 | 295 | 13.9 | 18.2 | 0.00 | 0.18 | 0.05 | 55 | 997.9 |
| 20260505071227 | 54 | 302 | 13.9 | 18.2 | 0.00 | 0.18 | 0.05 | 55 | 997.7 |
| 20260505070325 | 55 | 282 | 12.2 | 19.1 | 0.00 | 0.18 | 0.05 | 55 | 997.6 |
| 20260505065425 | 55 | 264 | 11.3 | 18.2 | 0.00 | 0.18 | 0.05 | 55 | 997.5 |
| 20260505064525 | 54 | 285 | 15.6 | 19.1 | 0.00 | 0.18 | 0.05 | 58 | 997.6 |
| 20260505063625 | 54 | 263 | 12.2 | 14.8 | 0.00 | 0.18 | 0.05 | 57 | 997.7 |
| 20260505061802 | 55 | 254 | 13.0 | 18.2 | 0.00 | 0.18 | 0.05 | 57 | 997.6 |
| 20260505060904 | 55 | 235 | 10.4 | 18.2 | 0.00 | 0.18 | 0.05 | 58 | 997.4 |
| 20260505060003 | 54 | 236 | 11.3 | 16.5 | 0.00 | 0.18 | 0.05 | 60 | 997.4 |
| 20260505055102 | 54 | 262 | 13.0 | 18.2 | 0.00 | 0.18 | 0.05 | 59 | 997.4 |
| 20260505054203 | 55 | 269 | 10.4 | 13.0 | 0.00 | 0.18 | 0.05 | 61 | 997.2 |
| 20260505053515 | 55 | 237 | 10.4 | 15.6 | 0.00 | 0.18 | 0.05 | 62 | 997.3 |
| 20260505052404 | 54 | 231 | 10.4 | 14.8 | 0.00 | 0.18 | 0.05 | 68 | 997.1 |
| 20260505051502 | 53 | 190 | 12.2 | 15.6 | 0.00 | 0.18 | 0.05 | 68 | 997.1 |
| 20260505050812 | 52 | 216 | 11.3 | 15.6 | 0.00 | 0.18 | 0.05 | 70 | 997.3 |
| 20260505041416 | 47 | 219 | 8.7 | 12.2 | 0.00 | 0.18 | 0.05 | 91 | 997.4 |
| 20260505040513 | 46 | 211 | 9.6 | 13.0 | 0.00 | 0.18 | 0.05 | 90 | 997.4 |
| 20260505035402 | 47 | 196 | 11.3 | 13.9 | 0.00 | 0.18 | 0.05 | 92 | 997.4 |
| 20260505034502 | 48 | 206 | 7.8 | 12.2 | 0.00 | 0.18 | 0.05 | 94 | 997.5 |